Regional Weather Roundup
Issued by NWS Newport/Morehead, NC

Current Version | Previous Version | Text Only | Print | Product List | Glossary Off
Versions: 1 2 3 4 5 6 7 8 9 10 11 12 13 14 15 16 17 18 19 20 21 22 23 24 25 26 27 28 29 30 31 32 33 34 35 36 37 38 39 40 41 42 43 44 45 46 47 48 49 50
000 ASUS42 KMHX 032124 RWRMHX WEATHER ROUNDUP FOR EASTERN NORTH CAROLINA NATIONAL WEATHER SERVICE NEWPORT/MOREHEAD CITY NC 400 PM EST SAT DEC 03 2016 NOTE: "FAIR" INDICATES FEW OR NO CLOUDS BELOW 12,000 FEET WITH NO SIGNIFICANT WEATHER AND/OR OBSTRUCTIONS TO VISIBILITY NCZ015>017-031-032-045>047-102-103-032200- NORTH COAST CITY SKY/WX TMP DP RH WIND PRES REMARKS EDENTON PTCLDY 52 32 47 CALM 30.23R ELIZABETH CITY CLEAR 50 29 44 N9 30.21R KITTY HAWK CLOUDY 48 34 57 N5 30.20R MANTEO CLOUDY 49 33 53 N8 30.21R $$ NCZ045>047-081-094-103-104-032200- CENTRAL COAST CITY SKY/WX TMP DP RH WIND PRES REMARKS FRISCO PTCLDY 52 33 48 VRB5 30.20R $$ NCZ095-097-098-100-101-032200- SOUTHERN COAST CITY SKY/WX TMP DP RH WIND PRES REMARKS BEAUFORT CLOUDY 52 32 46 N9 30.22R CEDAR ISLAND NOT AVBL JACKSONVILLE PTCLDY 52 29 41 NW6 30.22R PINEY ISLAND PTCLDY N/A N/A N/A N7 30.21R WILMINGTON CLOUDY 51 31 46 N5 30.23S $$ NCZ011>013-027>030-043-044-078>080-089-090>093-098-032200- COASTAL PLAIN CITY SKY/WX TMP DP RH WIND PRES REMARKS AHOSKIE CLEAR 48 32 53 CALM 30.24S CLINTON CLOUDY 51 32 47 NW3 30.24S ELIZABETHTOWN CLOUDY 51 32 47 CALM 30.24S GOLDSBORO MOCLDY 52 27 37 NW7 30.22R GREENVILLE PTCLDY 52 32 46 N6 30.23F HAVELOCK PTCLDY 53 32 44 NW7 30.23R KENANSVILLE CLOUDY 52 28 40 N6 30.23R KINSTON CLEAR 52 30 43 N5 30.24R NEW BERN PTCLDY 51 31 46 N6 30.22R RICHLANDS MOCLDY 51 30 44 N5 30.23R ROCKY MOUNT PTCLDY 52 29 41 N7 30.23S WASHINGTON PTCLDY 51 30 45 N6 30.22F WHITEVILLE CLOUDY 51 31 46 CALM 30.23S $$ AMZ130-135-150-152-154-156-158-170-250-252-270-ANZ085-086-088-633-658-670-032200- MARINE OBSERVATIONS STATION/POSITION TIME TEMP WIND PRES WAVE SWELL AIR SEA DIR/SP/G HT/PER HT/PER (UTC) (F) (DEG/KT/KT) (MB) (FT/S) (FT/S) CHESAPEAKE LIGHT NOT AVBL 64 E VA BEACH 2050 51 60 330/ 19/ 23 1021.5 6/ 6 DUCK 2100 50 56 340/ 13/ 15 1022.2 2 E DUCK NOT AVBL OREGON INLET 2100 49 55 340/ 8/ 11 1022.7 13E OREGON INLT 2100 60 N/A 6/ 7 5/ 7 HATTERAS CG 2100 51 58 330/ 13/ 15 1022.6 DIAMOND BUOY 2050 65 74 360/ 16/ 19 1022.5 5/ 8 3/ 8 CAPE LOOKOUT 2100 51 360/ 9/ 10 1022.7 BEAUFORT LAB 2100 52 56 360/ 7/ 12 1021.9 30 SE NEW RVR IN 2108 53 71 360/ 8/ 12 1023.1 30 SE NEW RVR IN NOT AVBL 27 SE WRIGHTSVLE 2108 52 69 360/ 10/ 14 1023.3 5 SE WRIGHTSVLE 2108 50 63 340/ 8/ 14 1023.2 225 S CAPE HAT 2050 64 74 10/ 14/ 17 1019.9 6/ 7 5/ 7 41 SE CHARLESTON 2050 57 74 10/ 12/ 16 1022.6 4/ 6 2/ 6 $$

USA.gov is the U.S. government's official web portal to all federal, state and local government web resources and services.